| time (UTC) | temp F | wind direction | speed MPH | gust MPH | rain 1hr in | rain 24hr in | rain mn in | humidity % | barometer mb |
| 20260502224235 | 71 | 98 | 3.0 | 10.0 | 0.00 | 0.00 | 0.00 | 27 | 1017.8 |
| 20260502223729 | 71 | 87 | 1.0 | 10.0 | 0.00 | 0.00 | 0.00 | 27 | 1017.9 |
| 20260502223228 | 70 | 160 | 2.0 | 7.0 | 0.00 | 0.00 | 0.00 | 29 | 1017.9 |
| 20260502222731 | 69 | 291 | 2.0 | 7.0 | 0.00 | 0.00 | 0.00 | 29 | 1017.9 |
| 20260502222229 | 70 | 87 | 2.0 | 7.0 | 0.00 | 0.00 | 0.00 | 27 | 1017.9 |
| 20260502221729 | 68 | 88 | 4.0 | 9.0 | 0.00 | 0.00 | 0.00 | 30 | 1018.0 |
| 20260502221229 | 67 | 346 | 6.0 | 9.0 | 0.00 | 0.00 | 0.00 | 29 | 1018.1 |
| 20260502220723 | 68 | 84 | 3.0 | 9.0 | 0.00 | 0.00 | 0.00 | 28 | 1018.3 |
| 20260502220224 | 69 | 72 | 2.0 | 9.0 | 0.00 | 0.00 | 0.00 | 28 | 1018.4 |
| 20260502215723 | 70 | 102 | 2.0 | 11.0 | 0.00 | 0.00 | 0.00 | 28 | 1018.4 |
| 20260502215225 | 70 | 202 | 3.0 | 11.0 | 0.00 | 0.00 | 0.00 | 27 | 1018.4 |
| 20260502214953 | 70 | 134 | 4.0 | 11.0 | 0.00 | 0.00 | 0.00 | 27 | 1018.5 |
| 20260502214456 | 71 | 160 | 4.0 | 11.0 | 0.00 | 0.00 | 0.00 | 26 | 1018.6 |
| 20260502213718 | 71 | 77 | 4.0 | 10.0 | 0.00 | 0.00 | 0.00 | 27 | 1018.7 |
| 20260502213218 | 70 | 147 | 3.0 | 10.0 | 0.00 | 0.00 | 0.00 | 27 | 1018.6 |
| 20260502212718 | 70 | 272 | 4.0 | 10.0 | 0.00 | 0.00 | 0.00 | 30 | 1018.7 |
| 20260502212219 | 70 | 96 | 4.0 | 10.0 | 0.00 | 0.00 | 0.00 | 27 | 1018.8 |
| 20260502211949 | 70 | 154 | 3.0 | 11.0 | 0.00 | 0.00 | 0.00 | 30 | 1019.0 |
| 20260502211217 | 69 | 71 | 3.0 | 11.0 | 0.00 | 0.00 | 0.00 | 30 | 1019.0 |
| 20260502210713 | 68 | 97 | 3.0 | 10.0 | 0.00 | 0.00 | 0.00 | 28 | 1019.1 |
| 20260502210213 | 69 | 200 | 3.0 | 8.0 | 0.00 | 0.00 | 0.00 | 28 | 1019.3 |
| 20260502205944 | 69 | 53 | 4.0 | 9.0 | 0.00 | 0.00 | 0.00 | 29 | 1019.3 |
| 20260502205211 | 69 | 88 | 2.0 | 9.0 | 0.00 | 0.00 | 0.00 | 29 | 1019.4 |
| 20260502204942 | 68 | 89 | 2.0 | 11.0 | 0.00 | 0.00 | 0.00 | 30 | 1019.4 |
| 20260502204210 | 68 | 73 | 4.0 | 10.0 | 0.00 | 0.00 | 0.00 | 31 | 1019.4 |
| 20260502203707 | 67 | 79 | 6.0 | 11.0 | 0.00 | 0.00 | 0.00 | 31 | 1019.6 |
| 20260502202706 | 68 | 103 | 3.0 | 12.0 | 0.00 | 0.00 | 0.00 | 32 | 1019.7 |
| 20260502202207 | 68 | 79 | 5.0 | 18.0 | 0.00 | 0.00 | 0.00 | 30 | 1019.6 |
| 20260502201705 | 67 | 76 | 5.0 | 18.0 | 0.00 | 0.00 | 0.00 | 30 | 1019.6 |
| 20260502201206 | 67 | 172 | 4.0 | 19.0 | 0.00 | 0.00 | 0.00 | 31 | 1019.7 |
| 20260502200657 | 66 | 183 | 3.0 | 19.0 | 0.00 | 0.00 | 0.00 | 31 | 1019.4 |
| 20260502200159 | 66 | 258 | 3.0 | 9.0 | 0.00 | 0.00 | 0.00 | 32 | 1019.7 |
| 20260502195659 | 67 | 271 | 2.0 | 9.0 | 0.00 | 0.00 | 0.00 | 30 | 1019.8 |
| 20260502195159 | 67 | 134 | 3.0 | 9.0 | 0.00 | 0.00 | 0.00 | 31 | 1019.8 |
| 20260502194930 | 67 | 110 | 4.0 | 11.0 | 0.00 | 0.00 | 0.00 | 31 | 1019.8 |
| 20260502194159 | 67 | 90 | 4.0 | 11.0 | 0.00 | 0.00 | 0.00 | 32 | 1020.0 |
| 20260502193653 | 67 | 157 | 5.0 | 12.0 | 0.00 | 0.00 | 0.00 | 31 | 1020.0 |
| 20260502193153 | 68 | 117 | 4.0 | 12.0 | 0.00 | 0.00 | 0.00 | 33 | 1020.0 |
| 20260502192654 | 67 | 76 | 5.0 | 12.0 | 0.00 | 0.00 | 0.00 | 33 | 1020.0 |
| 20260502192153 | 67 | 25 | 4.0 | 12.0 | 0.00 | 0.00 | 0.00 | 32 | 1020.2 |
| 20260502191653 | 67 | 105 | 3.0 | 10.0 | 0.00 | 0.00 | 0.00 | 31 | 1020.2 |
| 20260502191153 | 67 | 56 | 3.0 | 21.0 | 0.00 | 0.00 | 0.00 | 31 | 1020.2 |
| 20260502190647 | 67 | 210 | 5.0 | 21.0 | 0.00 | 0.00 | 0.00 | 32 | 1020.4 |
| 20260502190147 | 67 | 90 | 7.0 | 22.0 | 0.00 | 0.00 | 0.00 | 32 | 1020.4 |
| 20260502185648 | 67 | 87 | 4.0 | 22.0 | 0.00 | 0.00 | 0.00 | 31 | 1020.5 |
| 20260502185148 | 67 | 154 | 2.0 | 8.0 | 0.00 | 0.00 | 0.00 | 32 | 1020.4 |
| 20260502184647 | 67 | 254 | 3.0 | 8.0 | 0.00 | 0.00 | 0.00 | 31 | 1020.6 |
| 20260502184148 | 67 | 82 | 2.0 | 11.0 | 0.00 | 0.00 | 0.00 | 33 | 1020.7 |
| 20260502183641 | 66 | 161 | 3.0 | 11.0 | 0.00 | 0.00 | 0.00 | 26 | 1020.9 |
| 20260502183139 | 67 | 272 | 3.0 | 11.0 | 0.00 | 0.00 | 0.00 | 26 | 1021.0 |
| 20260502182638 | 67 | 169 | 4.0 | 11.0 | 0.00 | 0.00 | 0.00 | 29 | 1021.0 |
| 20260502182135 | 66 | 124 | 3.0 | 11.0 | 0.00 | 0.00 | 0.00 | 30 | 1021.0 |
| 20260502181636 | 65 | 172 | 4.0 | 11.0 | 0.00 | 0.00 | 0.00 | 32 | 1021.1 |
| 20260502181131 | 65 | 219 | 4.0 | 11.0 | 0.00 | 0.00 | 0.00 | 32 | 1021.1 |
| 20260502180631 | 64 | 189 | 3.0 | 11.0 | 0.00 | 0.00 | 0.00 | 35 | 1021.1 |
| 20260502170119 | 63 | 93 | 5.0 | 14.0 | 0.00 | 0.00 | 0.00 | 39 | 1021.1 |
| 20260502164109 | 62 | 201 | 6.0 | 14.0 | 0.00 | 0.00 | 0.00 | 40 | 1021.1 |
| 20260502163611 | 62 | 113 | 6.0 | 14.0 | 0.00 | 0.00 | 0.00 | 40 | 1021.1 |
| 20260502163110 | 62 | 150 | 6.0 | 16.0 | 0.00 | 0.00 | 0.00 | 41 | 1021.0 |
| 20260502162611 | 61 | 73 | 6.0 | 16.0 | 0.00 | 0.00 | 0.00 | 41 | 1021.1 |
| 20260502162111 | 61 | 105 | 6.0 | 17.0 | 0.00 | 0.00 | 0.00 | 41 | 1021.0 |
| 20260502161611 | 61 | 90 | 7.0 | 17.0 | 0.00 | 0.00 | 0.00 | 42 | 1021.0 |
| 20260502161109 | 60 | 96 | 8.0 | 18.0 | 0.00 | 0.00 | 0.00 | 41 | 1021.0 |
| 20260502160607 | 60 | 144 | 7.0 | 18.0 | 0.00 | 0.00 | 0.00 | 42 | 1021.1 |
| 20260502160338 | 60 | 131 | 6.0 | 12.0 | 0.00 | 0.00 | 0.00 | 42 | 1021.0 |
| 20260502152059 | 59 | 83 | 5.0 | 12.0 | 0.00 | 0.00 | 0.00 | 43 | 1020.9 |
| 20260502151831 | 59 | 100 | 4.0 | 10.0 | 0.00 | 0.00 | 0.00 | 43 | 1020.7 |
| 20260502151056 | 59 | 76 | 4.0 | 10.0 | 0.00 | 0.00 | 0.00 | 44 | 1020.6 |
| 20260502150555 | 58 | 120 | 6.0 | 14.0 | 0.00 | 0.00 | 0.00 | 43 | 1020.7 |
| 20260502130532 | 41 | 48 | 0.0 | 3.0 | 0.00 | 0.00 | 0.00 | 67 | 1019.3 |
| 20260502130303 | 39 | 48 | 0.0 | 3.0 | 0.00 | 0.00 | 0.00 | 70 | 1019.3 |
| 20260502123528 | 38 | 157 | 0.0 | 0.0 | 0.00 | 0.00 | 0.00 | 68 | 1019.1 |
| 20260502123025 | 38 | 157 | 0.0 | 0.0 | 0.00 | 0.00 | 0.00 | 68 | 1019.0 |
| 20260502122754 | 38 | 157 | 0.0 | 0.0 | 0.00 | 0.00 | 0.00 | 68 | 1019.0 |
| 20260502122021 | 38 | 157 | 0.0 | 0.0 | 0.00 | 0.00 | 0.00 | 67 | 1019.0 |
| 20260502121523 | 39 | 157 | 0.0 | 0.0 | 0.00 | 0.00 | 0.00 | 66 | 1019.0 |
| 20260502121248 | 39 | 157 | 0.0 | 1.0 | 0.00 | 0.00 | 0.00 | 65 | 1019.0 |
| 20260502120520 | 39 | 157 | 0.0 | 1.0 | 0.00 | 0.00 | 0.00 | 65 | 1019.0 |
| 20260502115517 | 40 | 157 | 0.0 | 1.0 | 0.00 | 0.00 | 0.00 | 64 | 1019.0 |
| 20260502115016 | 40 | 157 | 0.0 | 0.0 | 0.00 | 0.00 | 0.00 | 63 | 1019.0 |
| 20260502114515 | 41 | 157 | 0.0 | 0.0 | 0.00 | 0.00 | 0.00 | 62 | 1019.0 |
| 20260502114009 | 41 | 157 | 0.0 | 1.0 | 0.00 | 0.00 | 0.00 | 61 | 1019.0 |
| 20260502113507 | 41 | 157 | 0.0 | 0.0 | 0.00 | 0.00 | 0.00 | 61 | 1019.0 |
| 20260502113006 | 42 | 157 | 0.0 | 0.0 | 0.00 | 0.00 | 0.00 | 59 | 1019.0 |
| 20260502112734 | 42 | 157 | 0.0 | 1.0 | 0.00 | 0.00 | 0.00 | 58 | 1019.0 |
| 20260502112003 | 43 | 157 | 0.0 | 1.0 | 0.00 | 0.00 | 0.00 | 58 | 1018.8 |
| 20260502111456 | 43 | 157 | 0.0 | 4.0 | 0.00 | 0.00 | 0.00 | 57 | 1018.7 |
| 20260502110956 | 44 | 157 | 0.0 | 4.0 | 0.00 | 0.00 | 0.00 | 57 | 1018.7 |
| 20260502110457 | 44 | 157 | 1.0 | 4.0 | 0.00 | 0.00 | 0.00 | 56 | 1018.6 |
| 20260502105957 | 44 | 157 | 1.0 | 4.0 | 0.00 | 0.00 | 0.00 | 55 | 1018.7 |
| 20260502105729 | 45 | 104 | 0.0 | 4.0 | 0.00 | 0.00 | 0.00 | 53 | 1018.6 |
| 20260502104957 | 46 | 104 | 0.0 | 4.0 | 0.00 | 0.00 | 0.00 | 52 | 1018.6 |
| 20260502104451 | 47 | 103 | 1.0 | 5.0 | 0.00 | 0.00 | 0.00 | 51 | 1018.6 |
| 20260502103450 | 47 | 71 | 0.0 | 2.0 | 0.00 | 0.00 | 0.00 | 50 | 1018.6 |
| 20260502103223 | 48 | 76 | 0.0 | 1.0 | 0.00 | 0.00 | 0.00 | 48 | 1018.6 |
| 20260502102722 | 49 | 76 | 0.0 | 1.0 | 0.00 | 0.00 | 0.00 | 46 | 1018.6 |
| 20260502101953 | 51 | 75 | 0.0 | 1.0 | 0.00 | 0.00 | 0.00 | 45 | 1018.6 |
| 20260502101445 | 51 | 75 | 0.0 | 3.0 | 0.00 | 0.00 | 0.00 | 42 | 1018.6 |
| 20260502100946 | 52 | 76 | 0.0 | 3.0 | 0.00 | 0.00 | 0.00 | 41 | 1018.6 |
| 20260502100444 | 52 | 75 | 1.0 | 4.0 | 0.00 | 0.00 | 0.00 | 41 | 1018.6 |
| 20260502091432 | 55 | 122 | 3.0 | 8.0 | 0.00 | 0.00 | 0.00 | 37 | 1018.5 |
| 20260502090933 | 55 | 69 | 3.0 | 9.0 | 0.00 | 0.00 | 0.00 | 37 | 1018.5 |
| 20260502090431 | 55 | 121 | 3.0 | 9.0 | 0.00 | 0.00 | 0.00 | 37 | 1018.5 |
| 20260502071419 | 55 | 64 | 4.0 | 10.0 | 0.00 | 0.00 | 0.00 | 42 | 1019.0 |
| 20260502070913 | 55 | 98 | 3.0 | 10.0 | 0.00 | 0.00 | 0.00 | 42 | 1019.0 |
| 20260502070412 | 55 | 10 | 4.0 | 11.0 | 0.00 | 0.00 | 0.00 | 41 | 1019.0 |
| 20260502070146 | 55 | 40 | 5.0 | 11.0 | 0.00 | 0.00 | 0.00 | 40 | 1019.0 |
| 20260502065413 | 56 | 162 | 5.0 | 10.0 | 0.00 | 0.00 | 0.00 | 39 | 1019.0 |
| 20260502064913 | 56 | 70 | 4.0 | 11.0 | 0.00 | 0.00 | 0.00 | 39 | 1019.0 |
| 20260502064641 | 56 | 65 | 4.0 | 11.0 | 0.00 | 0.00 | 0.00 | 38 | 1018.8 |
| 20260502063907 | 56 | 97 | 4.0 | 13.0 | 0.00 | 0.00 | 0.00 | 37 | 1018.7 |
| 20260502063406 | 57 | 95 | 4.0 | 13.0 | 0.00 | 0.00 | 0.00 | 37 | 1018.7 |
| 20260502062907 | 57 | 53 | 3.0 | 12.0 | 0.00 | 0.00 | 0.00 | 37 | 1018.7 |
| 20260502062407 | 57 | 34 | 4.0 | 13.0 | 0.00 | 0.00 | 0.00 | 37 | 1018.7 |
| 20260502061906 | 57 | 271 | 4.0 | 21.0 | 0.00 | 0.00 | 0.00 | 36 | 1018.7 |
| 20260502060859 | 58 | 59 | 8.0 | 22.0 | 0.00 | 0.00 | 0.00 | 36 | 1018.7 |
| 20260502060359 | 58 | 63 | 6.0 | 22.0 | 0.00 | 0.00 | 0.00 | 35 | 1018.7 |
| 20260502055858 | 58 | 20 | 3.0 | 15.0 | 0.00 | 0.00 | 0.00 | 35 | 1018.6 |
| 20260502055400 | 58 | 106 | 3.0 | 15.0 | 0.00 | 0.00 | 0.00 | 35 | 1018.6 |
| 20260502054859 | 58 | 241 | 6.0 | 16.0 | 0.00 | 0.00 | 0.00 | 35 | 1018.6 |
| 20260502054400 | 58 | 98 | 7.0 | 16.0 | 0.00 | 0.00 | 0.00 | 35 | 1018.5 |
| 20260502053853 | 58 | 62 | 6.0 | 16.0 | 0.00 | 0.00 | 0.00 | 35 | 1018.4 |
| 20260502053624 | 58 | 83 | 6.0 | 16.0 | 0.00 | 0.00 | 0.00 | 34 | 1018.4 |
| 20260502053125 | 58 | 71 | 5.0 | 14.0 | 0.00 | 0.00 | 0.00 | 34 | 1018.4 |
| 20260502052354 | 58 | 67 | 6.0 | 17.0 | 0.00 | 0.00 | 0.00 | 34 | 1018.3 |
| 20260502051853 | 58 | 79 | 7.0 | 17.0 | 0.00 | 0.00 | 0.00 | 34 | 1018.4 |
| 20260502051623 | 58 | 84 | 7.0 | 16.0 | 0.00 | 0.00 | 0.00 | 34 | 1018.3 |
| 20260502050850 | 58 | 30 | 5.0 | 16.0 | 0.00 | 0.00 | 0.00 | 33 | 1018.1 |
| 20260502050621 | 58 | 25 | 5.0 | 13.0 | 0.00 | 0.00 | 0.00 | 34 | 1018.1 |
| 20260502045849 | 58 | 94 | 5.0 | 14.0 | 0.00 | 0.00 | 0.00 | 33 | 1018.1 |
| 20260502045350 | 58 | 95 | 6.0 | 14.0 | 0.00 | 0.00 | 0.00 | 34 | 1018.0 |
| 20260502044848 | 58 | 81 | 5.0 | 13.0 | 0.00 | 0.00 | 0.00 | 33 | 1018.0 |
| 20260502044618 | 58 | 100 | 4.0 | 12.0 | 0.00 | 0.00 | 0.00 | 34 | 1017.9 |
| 20260502043844 | 58 | 124 | 4.0 | 12.0 | 0.00 | 0.00 | 0.00 | 33 | 1017.8 |
| 20260502043343 | 58 | 140 | 6.0 | 14.0 | 0.00 | 0.00 | 0.00 | 33 | 1017.8 |
| 20260502042842 | 58 | 96 | 7.0 | 17.0 | 0.00 | 0.00 | 0.00 | 33 | 1017.7 |
| 20260502042342 | 59 | 115 | 6.0 | 17.0 | 0.00 | 0.00 | 0.00 | 33 | 1017.7 |
| 20260502041841 | 59 | 76 | 6.0 | 15.0 | 0.00 | 0.00 | 0.00 | 33 | 1017.7 |
| 20260502041342 | 59 | 116 | 7.0 | 15.0 | 0.00 | 0.00 | 0.00 | 33 | 1017.5 |
| 20260502040834 | 59 | 46 | 6.0 | 16.0 | 0.00 | 0.00 | 0.00 | 33 | 1017.4 |
| 20260502040335 | 59 | 103 | 5.0 | 16.0 | 0.00 | 0.00 | 0.00 | 33 | 1017.4 |
| 20260502040106 | 60 | 73 | 6.0 | 15.0 | 0.00 | 0.00 | 0.00 | 32 | 1017.3 |
| 20260502035335 | 60 | 103 | 6.0 | 14.0 | 0.00 | 0.00 | 0.00 | 31 | 1017.2 |
| 20260502034836 | 60 | 77 | 4.0 | 13.0 | 0.00 | 0.00 | 0.00 | 30 | 1017.2 |
| 20260502034335 | 60 | 93 | 2.0 | 13.0 | 0.00 | 0.00 | 0.00 | 30 | 1017.1 |
| 20260502033833 | 60 | 95 | 0.0 | 3.0 | 0.00 | 0.00 | 0.00 | 30 | 1017.1 |
| 20260502033330 | 61 | 325 | 0.0 | 7.0 | 0.00 | 0.00 | 0.00 | 29 | 1016.8 |
| 20260502032832 | 61 | 324 | 0.0 | 7.0 | 0.00 | 0.00 | 0.00 | 28 | 1016.8 |
| 20260502032603 | 61 | 325 | 2.0 | 8.0 | 0.00 | 0.00 | 0.00 | 28 | 1016.8 |
| 20260502031830 | 61 | 51 | 3.0 | 8.0 | 0.00 | 0.00 | 0.00 | 28 | 1016.8 |
| 20260502031329 | 61 | 34 | 2.0 | 7.0 | 0.00 | 0.00 | 0.00 | 30 | 1016.8 |
| 20260502030826 | 61 | 33 | 1.0 | 7.0 | 0.00 | 0.00 | 0.00 | 30 | 1016.8 |
| 20260502030326 | 61 | 77 | 1.0 | 5.0 | 0.00 | 0.00 | 0.00 | 31 | 1016.7 |
| 20260502025825 | 61 | 323 | 3.0 | 13.0 | 0.00 | 0.00 | 0.00 | 31 | 1016.6 |
| 20260502025325 | 60 | 39 | 4.0 | 13.0 | 0.00 | 0.00 | 0.00 | 32 | 1016.6 |
| 20260502025056 | 59 | 267 | 2.0 | 14.0 | 0.00 | 0.00 | 0.00 | 33 | 1016.5 |
| 20260502024324 | 56 | 197 | 0.0 | 14.0 | 0.00 | 0.00 | 0.00 | 45 | 1016.4 |
| 20260502023817 | 56 | 244 | 0.0 | 1.0 | 0.00 | 0.00 | 0.00 | 44 | 1016.1 |
| 20260502023316 | 56 | 244 | 0.0 | 1.0 | 0.00 | 0.00 | 0.00 | 42 | 1016.0 |
| 20260502023045 | 57 | 244 | 0.0 | 1.0 | 0.00 | 0.00 | 0.00 | 42 | 1015.9 |
| 20260502022314 | 57 | 244 | 0.0 | 0.0 | 0.00 | 0.00 | 0.00 | 42 | 1015.8 |
| 20260502022045 | 58 | 244 | 0.0 | 0.0 | 0.00 | 0.00 | 0.00 | 40 | 1015.8 |
| 20260502021313 | 58 | 244 | 0.0 | 0.0 | 0.00 | 0.00 | 0.00 | 40 | 1015.6 |
| 20260502020807 | 59 | 244 | 0.0 | 0.0 | 0.00 | 0.00 | 0.00 | 39 | 1015.5 |
| 20260502020306 | 60 | 244 | 0.0 | 0.0 | 0.00 | 0.00 | 0.00 | 37 | 1015.5 |
| 20260502015804 | 60 | 244 | 0.0 | 0.0 | 0.00 | 0.00 | 0.00 | 36 | 1015.5 |
| 20260502015301 | 61 | 244 | 0.0 | 0.0 | 0.00 | 0.00 | 0.00 | 36 | 1015.4 |
| 20260502014801 | 61 | 244 | 0.0 | 0.0 | 0.00 | 0.00 | 0.00 | 34 | 1015.4 |
| 20260502014300 | 62 | 244 | 0.0 | 3.0 | 0.00 | 0.00 | 0.00 | 34 | 1015.4 |
| 20260502013759 | 62 | 244 | 0.0 | 3.0 | 0.00 | 0.00 | 0.00 | 34 | 1015.4 |
| 20260502013258 | 63 | 244 | 0.0 | 3.0 | 0.00 | 0.00 | 0.00 | 32 | 1015.4 |
| 20260502012758 | 63 | 244 | 0.0 | 3.0 | 0.00 | 0.00 | 0.00 | 31 | 1015.3 |
| 20260502012255 | 63 | 264 | 1.0 | 4.0 | 0.00 | 0.00 | 0.00 | 30 | 1015.3 |
| 20260502011754 | 64 | 243 | 1.0 | 4.0 | 0.00 | 0.00 | 0.00 | 30 | 1015.3 |
| 20260502011248 | 64 | 261 | 1.0 | 4.0 | 0.00 | 0.00 | 0.00 | 30 | 1015.3 |
| 20260502010249 | 65 | 247 | 1.0 | 4.0 | 0.00 | 0.00 | 0.00 | 30 | 1015.3 |
| 20260502005750 | 65 | 254 | 1.0 | 4.0 | 0.00 | 0.00 | 0.00 | 29 | 1015.3 |
| 20260502005520 | 65 | 238 | 1.0 | 8.0 | 0.00 | 0.00 | 0.00 | 30 | 1015.3 |
| 20260502004750 | 66 | 261 | 1.0 | 8.0 | 0.00 | 0.00 | 0.00 | 29 | 1015.2 |
| 20260502004245 | 67 | 250 | 2.0 | 9.0 | 0.00 | 0.00 | 0.00 | 28 | 1015.2 |
| 20260502004015 | 67 | 252 | 3.0 | 9.0 | 0.00 | 0.00 | 0.00 | 29 | 1015.1 |
| 20260502003243 | 68 | 250 | 2.0 | 9.0 | 0.00 | 0.00 | 0.00 | 28 | 1015.1 |
| 20260502002743 | 68 | 251 | 2.0 | 9.0 | 0.00 | 0.00 | 0.00 | 27 | 1015.2 |
| 20260502002243 | 68 | 210 | 3.0 | 10.0 | 0.00 | 0.00 | 0.00 | 26 | 1015.1 |
| 20260502002015 | 68 | 273 | 3.0 | 10.0 | 0.00 | 0.00 | 0.00 | 27 | 1015.1 |
| 20260502001240 | 68 | 272 | 2.0 | 9.0 | 0.00 | 0.00 | 0.00 | 26 | 1015.1 |
| 20260502000738 | 68 | 258 | 2.0 | 9.0 | 0.00 | 0.00 | 0.00 | 27 | 1015.1 |
| 20260502000240 | 67 | 233 | 2.0 | 8.0 | 0.00 | 0.00 | 0.00 | 28 | 1015.1 |
| 20260501235738 | 66 | 228 | 2.0 | 8.0 | 0.00 | 0.00 | 0.00 | 28 | 1015.1 |
| 20260501235238 | 66 | 245 | 3.0 | 9.0 | 0.00 | 0.00 | 0.00 | 27 | 1015.1 |
| 20260501234738 | 66 | 239 | 3.0 | 9.0 | 0.00 | 0.00 | 0.00 | 27 | 1015.1 |
| 20260501234239 | 66 | 210 | 3.0 | 8.0 | 0.00 | 0.00 | 0.00 | 26 | 1015.1 |
| 20260501233737 | 66 | 276 | 2.0 | 8.0 | 0.00 | 0.00 | 0.00 | 25 | 1015.1 |
| 20260501233235 | 66 | 235 | 2.0 | 7.0 | 0.00 | 0.00 | 0.00 | 26 | 1015.1 |
| 20260501232734 | 66 | 245 | 2.0 | 9.0 | 0.00 | 0.00 | 0.00 | 27 | 1015.1 |
| 20260501232235 | 66 | 261 | 3.0 | 9.0 | 0.00 | 0.00 | 0.00 | 27 | 1014.9 |
| 20260501231734 | 66 | 244 | 2.0 | 7.0 | 0.00 | 0.00 | 0.00 | 26 | 1014.9 |
| 20260501231234 | 66 | 252 | 2.0 | 7.0 | 0.00 | 0.00 | 0.00 | 25 | 1015.1 |
| 20260501230726 | 66 | 213 | 2.0 | 6.0 | 0.00 | 0.00 | 0.00 | 26 | 1014.9 |
| 20260501230228 | 66 | 250 | 2.0 | 6.0 | 0.00 | 0.00 | 0.00 | 25 | 1015.2 |
| 20260501225727 | 67 | 254 | 2.0 | 9.0 | 0.00 | 0.00 | 0.00 | 26 | 1015.2 |
| 20260501225459 | 67 | 235 | 3.0 | 9.0 | 0.00 | 0.00 | 0.00 | 27 | 1015.1 |
| 20260501224959 | 67 | 250 | 3.0 | 10.0 | 0.00 | 0.00 | 0.00 | 24 | 1015.1 |
| 20260501224459 | 67 | 259 | 3.0 | 10.0 | 0.00 | 0.00 | 0.00 | 24 | 1015.2 |